Location: Red Rock Canyon
(36.1333°N, 115.4333°W)
Time: 18:52:56
(UTC-07:00)

ISS - Visible Passes

Search period start: 27 June 2017 00:00
Search period end: 07 July 2017 00:00
Orbit: 401 x 408 km, 51.6° (Epoch: 28 June)

Date Brightness Start Highest point End Pass type
(mag) Time Alt. Az. Time Alt. Az. Time Alt. Az.
02 Jul -1.0 04:24:02 10° SE 04:24:32 10° SE 04:25:02 10° ESE visible
04 Jul -2.3 04:14:13 16° S 04:16:10 27° SE 04:19:00 10° ENE visible
05 Jul -1.3 03:24:06 13° SE 03:24:06 13° SE 03:25:43 10° E visible
05 Jul -3.2 04:57:03 10° WSW 05:00:12 47° NW 05:03:23 10° NE visible
06 Jul -3.9 04:06:33 32° SW 04:07:53 80° SE 04:11:09 10° NE visible
